STARLINK-37683, 69367

Orbit data source: Space-Track

STARLINK-37683, 69367 is a payload satellite owned by SpaceX/Seattle (US) in LEO that was launched on Thu, 04 Jun 2026 UTC via an FALCON 9 launch vehicle from the Air Force Eastern Test Range (AFETR). Payload-class satellites include a variety of spacecraft equipped with specific instruments for various scientific and technological missions. These include communications satellites like Starlink; space stations such as the ISS; scientific satellites like the Hubble; Earth observation satellites from companies like Planet Labs, Umbra, and HawkEye 360; GPS; miniature CubeSats for education and research; and military/defense satellites.

Not visible in the next 10 days
Identifier
69367, 2026-123Q
Orbit
LEO
Country
Flag of USUS
Related business
Manufacturer
SpaceX/Seattle
Mission
Operational spacecraft
Bus & Motor
STARLINK V2MO, Unknown motor
Mass
575 kg wet, ~530 kg dry
Launch date (UTC)
2026-06-04 (2 months ago)
Launch vehicle
FALCON 9
Launch site
Air Force Eastern Test Range (AFETR)
Object type
Payload
Rocket body
Debris
Shape & HBR
Unknown shape, 17.7 m
Radar Cross Section
Large (>1 m²)

Expand to show TLE details & history
Last TLE update: 11 hours ago

TLE from 11 hours ago
0 STARLINK-37683
1 69367U 26123Q   26202.19947533  .00138293  00000-0  89043-3 0  9991
2 69367  53.1551  72.2562 0000845  79.7654 280.3462 15.75270102  7408
Epoch: 2026-07-21T04:47Z
TLE epoch observation values (Epoch: 2026-07-21T04:47:14.668Z)
Latitude
0.00002°
Longitude
61.4725°
Altitude
344.677 km
Speed
7.703 km/s
True Right ascension
04h 49m 01s
True Declination
0° 00' 00"
Sunlit
Object was in daylight at epoch
Visualization orbit readout
Latitude
Unknown
Longitude
Unknown
Altitude
Unknown
Speed
Unknown
Apparent Right ascension
Unknown
Apparent Declination
Unknown
Sunlit
N/A
Visualization observer readout
Local Sidereal Time
04:58:27
Azimuth
Unknown
Elevation
Unknown
Doppler factor
Unknown
Orbital elements
Apogee altitude
344.693 km
Perigee altitude
343.557 km
Semi-major axis
6,722.262 km
Eccentricity
0.00008
Inclination
53.1551°
RAAN
72.2562°
Arg. of periapsis
79.7654°
True anomaly
280.33667°
Mean anomaly
280.3462°
Eccentric anomaly
280.34144°
Mean motion
3.93795 °/min
Orbital period
91.42 mins
BSTAR
0.00089043
Loading maneuver chart data...
Computing Atmospheric mass density...
Loading historical data...
Loading historical data...
Loading historical data...
Loading historical data...
Loading historical data...
Loading historical data...
Loading historical data...

Documentation

Showing up to 5 results
|